Home   Weather   Borås   Past weeks

Flag for Sweden Past Weather in Borås, Sweden — Yesterday and Last 2 Weeks

Now
55 °F

Mostly cloudy.


Feels Like: 50 °F
Forecast: 53 / 62 °F
Wind: 24 mph from Southwest

Location: Gothenburg / Landvetter

Current Time: Sep 28, 2016 at 2:09:13 AM

Latest Report: Sep 28, 2016 at 1:20 AM


Visibility: N/A

Pressure: 29.95 "Hg

Humidity: 94%

Dew Point: 54 °F

Location of BoråsLocation

Past Weather in Borås — Graph

°F

Borås Temperature Yesterday

Maximum temperature yesterday: 61 °F (at 2:50 PM)
Minimum temperature yesterday: 54 °F (at 1:50 AM)
Average temperature yesterday: 56 °F

High & Low Weather Summary for the Past Weeks

 TemperatureHumidityPressure
High77 °F (Sep 14, 1:50 PM)100% (Sep 16, 7:20 AM)30.27 "Hg (Sep 16, 7:20 AM)
Low45 °F (Sep 24, 5:50 AM)45% (Sep 21, 2:20 PM)29.95 "Hg (Sep 28, 12:50 AM)
Average58 °F79%30.15 "Hg
* Reported Sep 13 12:20 AM — Sep 28 12:50 AM, Borås, Weather by CustomWeather, © 2016

Note: Actual official high and low records may vary slightly from our data, if they occured in-between our weather recording intervals... More about our weather records

Advertising

Borås Weather History for the Previous 24 Hours

Scroll right to see more
 ConditionsComfort  
Time TempWeatherWind HumidityBarometerVisibility
12:50 AM
Wed, Sep 28
54 °FLight rain. Mostly cloudy.21 mph94%29.95 "Hg4 mi
12:20 AM54 °FPartly cloudy.22 mph94%29.98 "Hg4 mi
11:50 PM
Tue, Sep 27
55 °FLight rain. Passing clouds.24 mph88%30.01 "Hg4 mi
11:20 PM57 °FPassing clouds.21 mph82%30.01 "HgN/A
10:50 PM59 °FClear.22 mph72%30.04 "Hg10 mi
10:20 PM57 °FClear.16 mph82%30.04 "Hg10 mi
9:50 PM55 °FClear.17 mph88%30.04 "Hg10 mi
9:20 PM57 °FClear.18 mph82%30.07 "Hg10 mi
8:50 PM55 °FClear.16 mph88%30.09 "Hg10 mi
8:20 PM55 °FClear.13 mph88%30.09 "Hg10 mi
7:50 PM55 °FClear.13 mph88%30.12 "Hg10 mi
7:20 PM55 °FClear.12 mph88%30.12 "Hg10 mi
6:50 PM57 °FSunny.10 mph88%30.15 "Hg10 mi
6:20 PM57 °FSunny.10 mph88%30.15 "Hg10 mi
5:50 PM57 °FSunny.9 mph88%30.15 "Hg10 mi
5:20 PM59 °FSunny.10 mph77%30.18 "Hg10 mi
4:50 PM61 °FSunny.12 mph72%30.18 "Hg10 mi
4:20 PM61 °FPassing clouds.13 mph72%30.18 "HgN/A
3:50 PM61 °FScattered clouds.15 mph77%30.21 "HgN/A
3:20 PM59 °FBroken clouds.8 mph88%30.21 "HgN/A
2:50 PM61 °FBroken clouds.6 mph77%30.21 "HgN/A
2:20 PM59 °FCloudy.8 mph82%30.24 "HgN/A
1:50 PM59 °FMore clouds than sun.8 mph88%30.24 "HgN/A
1:20 PM57 °FMostly cloudy.7 mph94%30.24 "HgN/A
12:50 PM57 °FLow clouds.7 mph94%30.27 "HgN/A
12:20 PM55 °FPartly sunny.6 mph94%30.27 "HgN/A
11:50 AM55 °FMostly cloudy.6 mph94%30.27 "HgN/A
11:20 AM55 °FSunny.7 mph94%30.27 "Hg10 mi
10:50 AM55 °FSunny.5 mph94%30.27 "Hg10 mi
10:20 AM55 °FSunny.7 mph94%30.27 "Hg10 mi
9:50 AM55 °FSunny.5 mph94%30.27 "Hg10 mi
9:20 AM55 °FSunny.5 mph94%30.27 "Hg10 mi
8:50 AM54 °FSunny.3 mph94%30.27 "Hg10 mi
8:20 AM54 °FMostly cloudy.3 mph94%30.27 "HgN/A
7:50 AM54 °FBroken clouds.3 mph94%30.27 "HgN/A
7:20 AM54 °FPartly sunny.5 mph88%30.27 "HgN/A
6:50 AM54 °FPassing clouds.3 mph88%30.27 "HgN/A
6:20 AM54 °FPassing clouds.3 mph94%30.24 "HgN/A
5:50 AM54 °FMostly cloudy.6 mph94%30.24 "HgN/A
5:20 AM54 °FMostly cloudy.5 mph94%30.24 "HgN/A
4:50 AM54 °FOvercast.6 mph94%30.27 "HgN/A
4:20 AM54 °FOvercast.6 mph100%30.27 "HgN/A
3:50 AM54 °FLight rain. Overcast.2 mph100%30.27 "Hg5 mi
3:20 AM54 °FFog.1 mph100%30.24 "Hg3 mi
2:50 AM54 °FClear.No wind100%30.24 "Hg10 mi
2:20 AM54 °FClear.2 mph100%30.24 "Hg10 mi
Weather by CustomWeather, © 2016

See weather overviewHow to use our weather pages